Time,TemperatureF,DewpointF,PressureIn,WindDirection,WindDirectionDegrees,WindSpeedMPH,WindSpeedGustMPH,Humidity,HourlyPrecipIn,Conditions,Clouds,dailyrainin,SoftwareType,DateUTC
2013-11-08 00:23:00,42.0,34.0,30.31,WNW,293,0.0,0.0,72,0.00,,,0.38,,2013-11-08 05:23:00,
2013-11-08 00:32:00,41.0,33.0,30.31,WNW,293,0.0,0.0,72,0.00,,,0.38,,2013-11-08 05:32:00,
2013-11-08 00:43:00,41.0,32.0,30.31,WNW,293,0.0,0.0,71,0.00,,,0.38,,2013-11-08 05:43:00,
2013-11-08 00:54:00,41.0,33.0,30.31,WNW,293,0.0,0.0,72,0.00,,,0.38,,2013-11-08 05:54:00,
2013-11-08 01:03:00,41.0,33.0,30.31,WNW,293,0.0,0.0,72,0.00,,,0.38,,2013-11-08 06:03:00,
2013-11-08 01:13:00,41.0,33.0,30.31,WNW,293,0.0,0.0,72,0.00,,,0.38,,2013-11-08 06:13:00,
2013-11-08 01:23:00,41.0,33.0,30.31,WNW,293,0.0,0.0,72,0.00,,,0.38,,2013-11-08 06:23:00,
2013-11-08 06:22:00,35.0,29.0,30.34,WNW,293,0.0,0.0,78,0.00,,,0.03,,2013-11-08 11:22:00,
2013-11-08 06:52:00,35.0,29.0,30.35,WNW,293,0.0,0.0,78,0.00,,,0.03,,2013-11-08 11:52:00,
2013-11-08 07:21:00,35.0,29.0,30.35,WNW,293,0.0,0.0,80,0.00,,,0.01,,2013-11-08 12:21:00,
2013-11-08 07:42:00,35.0,29.0,30.35,WNW,293,0.0,0.0,80,0.00,,,0.01,,2013-11-08 12:42:00,
2013-11-08 07:52:00,35.0,30.0,30.37,WNW,293,0.0,0.0,81,0.00,,,0.01,,2013-11-08 12:52:00,
2013-11-08 08:22:00,35.0,30.0,30.38,WNW,293,0.0,0.0,82,0.00,,,0.00,,2013-11-08 13:22:00,
2013-11-08 08:52:00,35.0,30.0,30.39,WNW,293,0.0,0.0,82,0.00,,,0.00,,2013-11-08 13:52:00,
2013-11-08 09:22:00,36.0,31.0,30.39,WNW,293,0.0,0.0,82,0.00,,,0.00,,2013-11-08 14:22:00,
2013-11-08 09:42:00,36.0,31.0,30.39,WNW,293,0.0,0.0,82,0.00,,,0.00,,2013-11-08 14:42:00,
2013-11-08 09:52:00,37.0,32.0,30.39,WNW,293,0.0,1.0,82,0.00,,,0.00,,2013-11-08 14:52:00,
2013-11-08 10:22:00,40.0,33.0,30.41,West,271,0.0,0.0,77,0.00,,,0.00,,2013-11-08 15:22:00,
2013-11-08 10:53:00,43.0,32.0,30.41,East,101,0.0,2.0,66,0.00,,,0.00,,2013-11-08 15:53:00,
2013-11-08 11:23:00,45.0,29.0,30.40,West,273,0.0,2.0,53,0.00,,,0.00,,2013-11-08 16:23:00,
2013-11-08 11:53:00,47.0,27.0,30.39,NW,316,0.0,6.0,46,0.00,,,0.00,,2013-11-08 16:53:00,
2013-11-08 12:22:00,50.0,28.0,30.38,WNW,296,1.0,3.0,42,0.00,,,0.00,,2013-11-08 17:22:00,
2013-11-08 12:53:00,53.0,29.0,30.37,NW,317,1.0,4.0,39,0.00,,,0.00,,2013-11-08 17:53:00,
2013-11-08 13:22:00,55.0,27.0,30.35,WNW,300,2.0,4.0,34,0.00,,,0.00,,2013-11-08 18:22:00,
2013-11-08 13:53:00,56.0,28.0,30.34,NW,313,2.0,5.0,34,0.00,,,0.00,,2013-11-08 18:53:00,
2013-11-08 14:22:00,57.0,25.0,30.33,WNW,301,0.0,4.0,29,0.00,,,0.00,,2013-11-08 19:22:00,
2013-11-08 14:42:00,58.0,26.0,30.32,NW,311,0.0,5.0,29,0.00,,,0.00,,2013-11-08 19:42:00,
2013-11-08 14:53:00,58.0,27.0,30.32,WNW,296,0.0,3.0,30,0.00,,,0.00,,2013-11-08 19:53:00,
2013-11-08 15:22:00,57.0,27.0,30.32,WNW,300,1.0,3.0,32,0.00,,,0.00,,2013-11-08 20:22:00,
2013-11-08 15:53:00,58.0,27.0,30.32,NW,320,1.0,3.0,30,0.00,,,0.00,,2013-11-08 20:53:00,
2013-11-08 16:22:00,58.0,23.0,30.31,WNW,301,1.0,3.0,26,0.00,,,0.00,,2013-11-08 21:22:00,
2013-11-08 16:54:00,57.0,27.0,30.31,WNW,303,0.0,1.0,31,0.00,,,0.00,,2013-11-08 21:54:00,
2013-11-08 17:13:00,56.0,25.0,30.31,WNW,303,0.0,0.0,30,0.00,,,0.00,,2013-11-08 22:13:00,
2013-11-08 17:24:00,56.0,25.0,30.31,WNW,303,0.0,0.0,30,0.00,,,0.00,,2013-11-08 22:24:00,
2013-11-08 17:43:00,55.0,28.0,30.30,WNW,303,0.0,0.0,35,0.00,,,0.00,,2013-11-08 22:43:00,
2013-11-08 17:53:00,54.0,26.0,30.30,ENE,78,0.0,0.0,33,0.00,,,0.00,,2013-11-08 22:53:00,
2013-11-08 18:22:00,52.0,27.0,30.30,ENE,78,0.0,0.0,38,0.00,,,0.00,,2013-11-08 23:22:00,
2013-11-08 18:53:00,50.0,29.0,30.30,ENE,78,0.0,0.0,45,0.00,,,0.00,,2013-11-08 23:53:00,
2013-11-08 19:22:00,48.0,30.0,30.31,ENE,78,0.0,0.0,50,0.00,,,0.00,,2013-11-09 00:22:00,
2013-11-08 19:52:00,46.0,32.0,30.30,ENE,78,0.0,0.0,57,0.00,,,0.00,,2013-11-09 00:52:00,
2013-11-08 20:22:00,44.0,31.0,30.29,ENE,78,0.0,0.0,61,0.00,,,0.00,,2013-11-09 01:22:00,
2013-11-08 20:52:00,43.0,31.0,30.30,ENE,78,0.0,0.0,63,0.00,,,0.00,,2013-11-09 01:52:00,
2013-11-08 21:22:00,41.0,30.0,30.30,ENE,78,0.0,0.0,65,0.00,,,0.00,,2013-11-09 02:22:00,
2013-11-08 21:52:00,40.0,30.0,30.30,ENE,78,0.0,0.0,68,0.00,,,0.00,,2013-11-09 02:52:00,
2013-11-08 22:22:00,39.0,30.0,30.30,ENE,78,0.0,0.0,69,0.00,,,0.00,,2013-11-09 03:22:00,
2013-11-08 22:54:00,38.0,29.0,30.29,ENE,78,0.0,0.0,70,0.00,,,0.00,,2013-11-09 03:54:00,
2013-11-08 23:23:00,37.0,29.0,30.29,ENE,78,0.0,0.0,74,0.00,,,0.00,,2013-11-09 04:23:00,
2013-11-08 23:42:00,37.0,30.0,30.29,ENE,78,0.0,0.0,75,0.00,,,0.00,,2013-11-09 04:42:00,
2013-11-08 23:53:00,37.0,30.0,30.29,ENE,78,0.0,0.0,76,0.00,,,0.00,,2013-11-09 04:53:00,